Burlington, VT

1:15 AM EST on December 12, 2019 (GMT -0500)
Burlington International

Weather History for KBTV - November, 2019

Change the Weather History Date:

Sunday, November 17, 2019

  Actual Average Record
Temperature  
Mean Temperature 22 °F 38 °F  
Max Temperature 36 °F 45 °F 70 °F (2006)
Min Temperature 7 °F 31 °F 7 °F (1924)
Degree Days  
Heating Degree Days 43 27  
Month to date heating degree days 547 415  
Since 1 July heating degree days 1054 1156  
Cooling Degree Days 0 0  
Month to date cooling degree days 0 0  
Year to date cooling degree days 606 491  
Moisture  
Dew Point 4 °F    
Average Humidity 50    
Maximum Humidity 76    
Minimum Humidity 23    
Precipitation  
Precipitation 0.00 in 0.11 in 1.50 in (1890)
Month to date precipitation 1.75 1.85  
Year to date precipitation 40.25 33.16  
Snow  
Snow 0.00 in 0.20 in 3.90 in (1965)
Month to date snowfall 10.2 1.9  
Since 1 July snowfall 10.2 2.2  
Since 1 September snowfall 10.2 2.2  
Snow Depth 4.00 in    
Sea Level Pressure  
Sea Level Pressure 30.38 in    
Wind  
Wind Speed 5 mph (SE)    
Max Wind Speed 14 mph    
Max Gust Speed 17 mph    
Visibility 10 miles    
Events      
T = Trace of Precipitation, MM = Missing Value Source: NWS Daily Summary

Daily Weather History Graph

Daily Weather History Graph

Search for Another Location

Airport or City:

Astronomy

Nov. 17, 2019 Rise Set
Actual Time 6:51 AM EST 4:23 PM EST
Civil Twilight 6:19 AM EST 4:55 PM EST
Nautical Twilight 5:44 AM EST 5:30 PM EST
Astronomical Twilight 5:09 AM EST 6:04 PM EST
Moon 8:54 PM EST (11/17) 11:38 AM EST (11/17)
Length of Visible Light 10h 35m
Length of Day
9h 32m
Waning Gibbous, 73% of the Moon is Illuminated
Nov 17
Waning Gibbous
Nov 19
Last Quarter
Nov 26
New
Dec 4
First Quarter
Dec 12
Full

Hourly Weather History & Observations

Time (EST) Temp. Windchill Dew Point Humidity Pressure Visibility Wind Dir Wind Speed Gust Speed Precip Events Conditions
1:54 AM 10.0 °F -0.9 °F 1.9 °F 70% 30.54 in 10.0 mi ENE 6.9 mph - N/A   Clear
2:54 AM 10.0 °F 3.6 °F 1.9 °F 70% 30.52 in 10.0 mi ENE 3.5 mph - N/A   Clear
3:54 AM 9.0 °F -2.2 °F 1.9 °F 73% 30.51 in 10.0 mi ENE 6.9 mph - N/A   Clear
4:54 AM 10.0 °F 0.4 °F 3.0 °F 73% 30.50 in 10.0 mi ENE 5.8 mph - N/A   Clear
5:54 AM 8.1 °F 1.4 °F 1.9 °F 76% 30.50 in 10.0 mi NNE 3.5 mph - N/A   Scattered Clouds
6:54 AM 9.0 °F - 1.9 °F 73% 30.50 in 10.0 mi Calm Calm - N/A   Scattered Clouds
7:54 AM 10.0 °F - 3.0 °F 73% 30.49 in 10.0 mi Calm Calm - N/A   Scattered Clouds
8:54 AM 15.1 °F - 5.0 °F 64% 30.48 in 10.0 mi Calm Calm - N/A   Scattered Clouds
9:54 AM 19.9 °F - 7.0 °F 57% 30.46 in 10.0 mi Calm Calm - N/A   Scattered Clouds
11:54 AM 30.9 °F 22.8 °F 3.0 °F 31% 30.40 in 10.0 mi South 9.2 mph - N/A   Partly Cloudy
12:54 PM 34.0 °F 26.6 °F 3.0 °F 27% 30.35 in 10.0 mi South 9.2 mph - N/A   Partly Cloudy
2:54 PM 36.0 °F 29.6 °F 1.9 °F 24% 30.32 in 10.0 mi South 8.1 mph - N/A   Partly Cloudy
3:54 PM 35.1 °F 30.1 °F 3.0 °F 26% 30.30 in 10.0 mi SSE 5.8 mph - N/A   Partly Cloudy
4:54 PM 30.9 °F 26.2 °F 5.0 °F 33% 30.30 in 10.0 mi SSE 4.6 mph - N/A   Partly Cloudy
5:54 PM 26.1 °F 19.4 °F 5.0 °F 41% 30.29 in 10.0 mi ESE 5.8 mph - N/A   Clear
6:54 PM 27.0 °F 19.5 °F 5.0 °F 39% 30.28 in 10.0 mi SSE 6.9 mph - N/A   Clear
7:54 PM 28.0 °F 24.2 °F 5.0 °F 38% 30.26 in 10.0 mi SE 3.5 mph - N/A   Clear
8:54 PM 28.0 °F 21.7 °F 6.1 °F 39% 30.24 in 10.0 mi SE 5.8 mph - N/A   Clear
9:54 PM 28.0 °F 21.7 °F 9.0 °F 45% 30.22 in 10.0 mi SE 5.8 mph - N/A   Clear
10:54 PM 27.0 °F 20.5 °F 10.0 °F 49% 30.20 in 10.0 mi SE 5.8 mph - N/A   Clear
11:54 PM 21.9 °F 15.7 °F 12.0 °F 66% 30.17 in 10.0 mi SE 4.6 mph - N/A   Clear